Location: Sangrey
(48.2845°N, 109.8206°W)
Time: 06:17:31
(UTC+00:00)

BlueWalker 3 - Pass Details

Date: 30 November 2022
Orbit: 499 x 517 km, 53.2° (Epoch: 27 January)

Event Time Altitude Azimuth Distance (km) Brightness Sun altitude
Rises 00:31:24 0° 254° (WSW) 2,633 7.8 -10.2°
Reaches altitude 10° 00:33:38 10° 258° (WSW) 1,744 6.2 -10.5°
Maximum altitude 00:37:33 61° 340° (NNW) 586 2.2 -11.2°
Enters shadow 00:40:27 17° 58° (ENE) 1,349 3.5 -11.6°
